Flag for Syria Weather past 2 weeks in Damascus, Syria

Now
68 °F

Clear.


Feels Like: 68 °F
Forecast: 61 / 102 °F
Wind: 9 mph from Southwest

Location: Damascus Int. Airport

Current Time: Aug 1, 2014 at 5:23:37 AM

Latest Report: Aug 1, 2014 at 5:00 AM


Visibility: 10 mi

Pressure: 29.80 "Hg

Humidity: 83%

Dew point: 63 °F

Location of DamascusLocation

Historic Weather in Damascus — Graph

°F

Damascus temperature yesterday

Maximum temperature yesterday: 100 °F (at 2:00 PM)
Minimum temperature yesterday: 66 °F (at 6:00 AM)
Average temperature yesterday: 83 °F

Past Weeks' High & Low Weather Summary

 TemperatureHumidityPressure
High100 °F (Jul 31, 2:00 PM)94% (Jul 17, 6:00 AM)29.95 "Hg (Jul 17, 6:00 AM)
Low64 °F (Jul 17, 6:00 AM)12% (Jul 31, 2:00 PM)29.68 "Hg (Jul 21, 1:00 AM)
Average80 °F50%29.80 "Hg
* Reported Jul 17 4:00 AM — Aug 1 4:00 AM, Damascus, Weather by CustomWeather, © 2014

Note: Actual official high and low records may vary slightly from our data, if they occured in-between our weather recording intervals... More about our weather records

Advertising

Damascus weather history for previous 24 hours

 ConditionsComfort  
Time TempWeatherWind HumidityBarometerVisibility
4:00 AM
Aug 1
68 °FClear.15 mph83%29.77 "Hg10 mi
3:00 AM70 °FClear.14 mph83%29.77 "Hg10 mi
2:00 AM72 °FClear.14 mph73%29.80 "Hg10 mi
1:00 AM72 °FClear.18 mph73%29.80 "Hg10 mi
12:00 AM75 °FClear.12 mph69%29.80 "Hg10 mi
11:00 PM
Jul 31
77 °FClear.14 mph57%29.77 "Hg10 mi
10:00 PM81 °FClear.18 mph58%29.77 "Hg10 mi
9:00 PM84 °FClear.14 mph48%29.74 "Hg10 mi
8:00 PM90 °FSunny.16 mph27%29.74 "Hg10 mi
7:00 PM97 °FSunny.16 mph13%29.71 "Hg10 mi
6:00 PM100 °FSunny.12 mph18%29.71 "Hg10 mi
5:00 PM100 °FSunny.5 mph18%29.71 "Hg10 mi
4:00 PM100 °FSunny.7 mph15%29.74 "Hg10 mi
3:00 PM100 °FSunny.9 mph15%29.74 "Hg10 mi
2:00 PM100 °FSunny.10 mph12%29.77 "Hg10 mi
1:00 PM97 °FSunny.7 mph27%29.77 "Hg10 mi
12:00 PM93 °FSunny.7 mph36%29.80 "Hg10 mi
11:00 AM88 °FSunny.7 mph46%29.83 "Hg10 mi
10:00 AM81 °FSunny.7 mph48%29.83 "Hg10 mi
9:00 AM75 °FSunny.7 mph69%29.83 "Hg10 mi
8:00 AM72 °FSunny.9 mph73%29.83 "Hg10 mi
7:00 AM68 °FSunny.9 mph83%29.83 "Hg10 mi
6:00 AM66 °FClear.12 mph83%29.80 "Hg10 mi
5:00 AM68 °FClear.12 mph78%29.80 "Hg10 mi
Weather by CustomWeather, © 2014

See weather overviewHow to use our weather pages